Morgantown, WV

4:19 AM EDT on May 26, 2018 (GMT -0400)
Morgantown Municipal-Hart

Weather History for KMGW - July, 2013

Change the Weather History Date:

Friday, July 19, 2013

  Actual Average Record
Temperature  
Mean Temperature 81 °F 73 °F  
Max Temperature 89 °F 83 °F 96 °F (1946)
Min Temperature 72 °F 63 °F 47 °F (1909)
Degree Days  
Heating Degree Days 0 0  
Month to date heating degree days 0 0  
Since 1 June heating degree days 11 31  
Since 1 July heating degree days 0 0  
Cooling Degree Days 16 8  
Month to date cooling degree days 227 152  
Year to date cooling degree days 542 381  
Since 1 June cooling degree days 396 314  
Growing Degree Days 30 (Base 50)    
Moisture  
Dew Point 71 °F    
Average Humidity 79    
Maximum Humidity 94    
Minimum Humidity 63    
Precipitation  
Precipitation 0.07 in 0.16 in 1.92 in (1902)
Month to date precipitation 4.50 2.93  
Year to date precipitation 21.92 24.23  
Sea Level Pressure  
Sea Level Pressure 30.01 in    
Wind  
Wind Speed 4 mph (SSW)    
Max Wind Speed 13 mph    
Max Gust Speed 24 mph    
Visibility 8 miles    
Events Rain    
T = Trace of Precipitation, MM = Missing Value Source: NWS Daily Summary

Daily Weather History Graph

Daily Weather History Graph

Search for Another Location

Airport or City:

Astronomy

Jul. 19, 2013 Rise Set
Actual Time 6:07 AM EDT 8:43 PM EDT
Civil Twilight 5:36 AM EDT 9:14 PM EDT
Nautical Twilight 4:57 AM EDT 9:53 PM EDT
Astronomical Twilight 4:13 AM EDT 10:37 PM EDT
Moon 5:44 PM EDT (7/19) 2:47 AM EDT (7/19)
Length of Visible Light 15h 38m
Length of Day
14h 35m
Waxing Gibbous, 86% of the Moon is Illuminated
Jul 19
Waxing Gibbous
Jul 22
Full
Jul 29
Last Quarter
Aug 6
New
Aug 14
First Quarter

Hourly Weather History & Observations

Time (EDT) Temp. Heat Index Dew Point Humidity Pressure Visibility Wind Dir Wind Speed Gust Speed Precip Events Conditions
12:53 AM 75.9 °F - 73.0 °F 91% 30.07 in 8.0 mi Calm Calm - N/A   Clear
1:53 AM 73.9 °F - 72.0 °F 93% 30.06 in 6.0 mi South 3.5 mph - N/A   Clear
2:53 AM 75.0 °F - 72.0 °F 90% 30.06 in 6.0 mi Calm Calm - N/A   Clear
3:53 AM 73.9 °F - 71.1 °F 91% 30.05 in 6.0 mi Calm Calm - N/A   Clear
4:53 AM 75.0 °F - 72.0 °F 90% 30.04 in 6.0 mi Calm Calm - N/A   Partly Cloudy
5:53 AM 73.0 °F - 71.1 °F 93% 30.05 in 4.0 mi Calm Calm - N/A   Clear
6:53 AM 73.9 °F - 71.1 °F 91% 30.04 in 4.0 mi Calm Calm - N/A   Clear
7:53 AM 75.9 °F - 72.0 °F 87% 30.04 in 7.0 mi Calm Calm - N/A   Clear
8:53 AM 80.1 °F 84.2 °F 73.0 °F 79% 30.05 in 8.0 mi Variable 3.5 mph - N/A   Clear
9:53 AM 82.9 °F 88.8 °F 73.0 °F 72% 30.05 in 9.0 mi Variable 3.5 mph - N/A   Clear
10:53 AM 84.9 °F 91.4 °F 73.0 °F 67% 30.04 in 10.0 mi West 5.8 mph - N/A   Clear
11:53 AM 87.1 °F 94.5 °F 73.0 °F 63% 30.03 in 10.0 mi SSW 9.2 mph - N/A   Scattered Clouds
12:53 PM 88.0 °F 96.5 °F 73.9 °F 63% 30.01 in 10.0 mi Variable 3.5 mph - N/A   Partly Cloudy
1:53 PM 80.1 °F 82.3 °F 66.9 °F 64% 30.00 in 8.0 mi Variable 5.8 mph - 0.00 in Rain Light Rain
2:53 PM 72.0 °F - 68.0 °F 87% 30.01 in 10.0 mi South 9.2 mph - 0.07 in   Partly Cloudy
3:53 PM 73.9 °F - 69.1 °F 85% 29.98 in 10.0 mi Calm Calm - N/A   Clear
4:53 PM 75.9 °F - 70.0 °F 82% 29.97 in 10.0 mi South 5.8 mph - N/A   Clear
5:53 PM 75.9 °F - 70.0 °F 82% 29.98 in 10.0 mi South 5.8 mph - N/A   Clear
6:53 PM 75.0 °F - 71.1 °F 87% 29.98 in 8.0 mi SSW 4.6 mph - 0.00 in Rain Light Rain
7:53 PM 73.9 °F - 71.1 °F 91% 29.96 in 6.0 mi South 3.5 mph - N/A   Clear
8:53 PM 73.9 °F - 70.0 °F 87% 29.94 in 8.0 mi SSW 5.8 mph - N/A   Clear
9:53 PM 75.0 °F - 68.0 °F 79% 29.97 in 10.0 mi SSW 4.6 mph - N/A   Partly Cloudy
10:53 PM 73.9 °F - 69.1 °F 85% 29.95 in 10.0 mi SSW 3.5 mph - N/A   Clear
11:53 PM 73.9 °F - 70.0 °F 87% 29.91 in 9.0 mi SSW 4.6 mph - N/A   Clear